AALTO-1 (42775 NORAD) Tracking and Keplerian Element Data

This shows tracking and keplerian element data for the satellite.

Feedback or suggestion? Click here.




ElementValue
Catalog42775
NameAALTO-1
Epoch Orbit9617
Epoch Day77.37700686
Epoch Year2019
RAAN136.2701
Inclination97.3619
Eccentricity0.0014131
Argument of Perigee177.5137
Mean Anonmoly182.6171
Mean Motion15.21173115
Decay Rate9.07E-06
L11 42775U 17036L 19077.37700686 .00000907 00000-0 43674-4 0 9997
L22 42775 97.3619 136.2701 0014131 177.5137 182.6171 15.21173115 96179

Live tracking and technical data element details for AALTO-1 (NORAD 42775). AALTO-1 can be tracked NOW for your location showing map with azimuth and elevation plus other details from your city location.

Track the satellite on the map from your city or location and see movement details for azimuth, elevation, latitude, longitude, range, height, and movement on the map or in text.







IsCatalogInMostPopularTable: catalog: 42775, numindb: 207
Update: records affected: 1



GetName: 42775 AALTO-1

Hit Count: updated at: Wed, 20 Mar 2019 05:15:21 GMT